Starlink 1373

operational
NORAD ID: 45544 Int'l Des: 2020-025 Owner: SPXS Country: US Constellation: starlink
LEOCIRCULARSTARLINK_TYPE

About Starlink 1373

Description loading...

Live Position

Loading 3D Globe...

Upcoming Passes

Altitude History

Altitude vs Time

uPlot chart will show altitude changes over time

Two-Line Element Set

1 45544U 20025P 25302.79512469 -.00000033 00000-0 16662-4 0 9998
2 45544 53.0545 334.2260 0001258 82.7587 277.3545 15.06403127305368
Epoch: Oct 29, 2025 • Age: 30 hours

Current Status

Altitude 556.0 km
Velocity 7.58 km/s
Sub-Earth Point -27.70°S, 121.78°E
Launch Date Apr 22, 2020
Age 5.5 years
Type internet

Technical Details

Classification Payload
Mass 260.00 kg
Dry Mass 248.00 kg
Total Mass 260.00 kg
Length 0.20 m
Diameter 2.80 m
Span 9.00 m
Shape Box + pan
Manufacturer SPXS
Bus Type Starlink
Phase Status In Orbit
Owner/State SPXS/US

Large Constellations

Loading constellations...